Content
SEND FEEDBACK

Daily
Averages
Monthly
Summary
United States of America

BOSTON, MASSACHUSETTS


Home > North America > United States > Massachusetts
Elevation: 4 feet     Latitude: 42 22N     Longitude: 071 02W

WEATHER
 
SELECT A DAY
Number of Records: 207,052;   Date Range: 1/1/95 - 12/20/14
 
SHARE

PRINT THIS DATA

[ ← Previous Day ]
WEATHER ALMANAC - SEPTEMBER 2, 2013
[ Next Day → ]
[ °C ]   °F
Weather ElementAverageHighLow
Temperature72.8 °F80.6 °F (2:13 pm)69.1 °F (4:54 am)
Dewpoint69.8 °F73.4 °F (2:13 pm)66 °F (7:54 am)
Humidity90.5 %100 % (4:28 am)76 % (4:54 pm)
Barometer29.80 in29.87 in (12:54 am)29.72 in (6:54 pm)
Wind Speed7.6 mph16.1 mph (2:13 pm)
Wind Gust24.2 mph (2:13 pm)
Weather ElementAverage
Visibility6.9 mi
Wind DirectionSSE (153.8 °)

Weather ElementTotal
Precipitation1.18 in
Cooling Degree Days9.8 (Base 65)
Growing Degree Days24.9 (Base 50)
Averaged from 45 records on September 2, 2013
WEATHER CONDITIONS BREAKOUT
WIND DIRECTION BREAKOUT
WEATHER BY HOUR - SEPTEMBER 2, 2013
[ °C ]   °F
Local TimeTemperatureDewpointHumidityBarometerVisibilityWind DirectionWind SpeedGust SpeedPrecipitationEventsConditions
12:54 AM72.0 °F70.0 °F93 %29.87 in8.0 miSouth (170°)5.8 mphMostly Cloudy
1:54 AM72.0 °F70.0 °F93 %29.85 in7.0 miSSE (160°)4.6 mphOvercast
2:40 AM71.6 °F69.8 °F94 %29.84 in10.0 miSSE (150°)3.5 mphOvercast
2:54 AM71.1 °F69.1 °F93 %29.84 in8.0 miSE (130°)4.6 mphOvercast
3:54 AM70.0 °F69.1 °F97 %29.84 in7.0 miSE (140°)5.8 mph0.00 inLight Drizzle
4:19 AM71.6 °F69.8 °F94 %29.83 in2.5 miSE (130°)6.9 mph0.00 inLight Drizzle
4:24 AM71.6 °F69.8 °F94 %29.83 in2.5 miSE (140°)8.1 mph0.00 inRainLight Rain
4:28 AM69.8 °F69.8 °F100 %29.83 in1.8 miSE (130°)8.1 mph0.00 inRainLight Rain
4:42 AM69.8 °F69.8 °F100 %29.83 in1.0 miSE (130°)6.9 mph0.01 inLight Drizzle
4:54 AM69.1 °F68.0 °F96 %29.83 in1.5 miSSE (150°)8.1 mph0.01 inRainRain
5:03 AM69.8 °F69.8 °F100 %29.82 in1.8 miSSE (150°)10.4 mph0.10 inRainRain
5:14 AM71.6 °F71.6 °F100 %29.82 in2.0 miSE (140°)11.5 mph0.15 inRainHeavy Rain
5:32 AM69.8 °F69.8 °F100 %29.82 in3.0 miSSE (150°)10.4 mph0.19 inMostly Cloudy
5:54 AM71.1 °F70.0 °F96 %29.83 in7.0 miSouth (170°)10.4 mph0.19 inMostly Cloudy
6:15 AM71.6 °F69.8 °F94 %29.83 in4.0 miSouth (170°)6.9 mphOvercast
6:54 AM72.0 °F70.0 °F93 %29.84 in7.0 miSouth (170°)8.1 mphOvercast
7:05 AM71.6 °F69.8 °F94 %29.84 in2.0 miSSW (200°)13.8 mph18.4 mph0.00 inRainRain
7:10 AM71.6 °F69.8 °F94 %29.83 in3.0 miSouth (190°)10.4 mph18.4 mph0.09 inRainHeavy Rain
7:17 AM71.6 °F69.8 °F94 %29.83 in7.0 miSouth (190°)12.7 mph0.10 inRainLight Rain
7:35 AM69.8 °F66.2 °F88 %29.82 in7.0 miSSW (210°)11.5 mph0.11 inRainLight Rain
7:54 AM71.1 °F66.0 °F84 %29.83 in7.0 miSSW (210°)9.2 mph0.11 inOvercast
8:54 AM69.1 °F66.9 °F93 %29.83 in7.0 miSE (140°)5.8 mph0.02 inRainLight Rain
9:42 AM71.6 °F68.0 °F88 %29.82 in7.0 miESE (120°)3.5 mph0.03 inOvercast
9:54 AM71.1 °F69.1 °F93 %29.83 in8.0 miCalm0.03 inOvercast
10:54 AM73.0 °F70.0 °F90 %29.83 in7.0 miEast (80°)3.5 mphOvercast
11:26 AM71.6 °F69.8 °F94 %29.82 in7.0 miENE (60°)6.9 mphOvercast
11:54 AM73.9 °F70.0 °F87 %29.81 in8.0 miESE (110°)4.6 mphOvercast
12:06 PM77.0 °F71.6 °F83 %29.81 in8.0 miSE (140°)4.6 mphOvercast
12:54 PM77.0 °F71.1 °F82 %29.79 in10.0 miSE (130°)6.9 mphMostly Cloudy
1:10 PM78.8 °F71.6 °F78 %29.78 in10.0 miSE (140°)5.8 mphOvercast
1:54 PM78.1 °F71.1 °F79 %29.77 in10.0 miSouth (170°)12.7 mphOvercast
2:13 PM80.6 °F73.4 °F79 %29.76 in10.0 miSSW (200°)16.1 mph24.2 mph0.02 inMostly Cloudy
2:54 PM79.0 °F72.0 °F79 %29.75 in10.0 miSouth (170°)10.4 mph0.02 inOvercast
3:54 PM79.0 °F72.0 °F79 %29.74 in10.0 miSouth (180°)11.5 mph19.6 mphOvercast
4:54 PM78.1 °F70.0 °F76 %29.73 in10.0 miSouth (180°)10.4 mphOvercast
5:54 PM75.0 °F68.0 °F79 %29.73 in10.0 miSSW (200°)13.8 mphMostly Cloudy
6:54 PM75.0 °F69.1 °F82 %29.72 in10.0 miSSW (200°)9.2 mphMostly Cloudy
7:54 PM73.0 °F70.0 °F90 %29.73 in10.0 miSouth (180°)4.6 mphMostly Cloudy
8:40 PM71.6 °F69.8 °F94 %29.74 in10.0 miCalmOvercast
8:44 PM71.6 °F69.8 °F94 %29.74 in10.0 miSouth (170°)4.6 mphOvercast
8:54 PM72.0 °F69.1 °F91 %29.73 in10.0 miSE (130°)4.6 mphOvercast
9:54 PM73.9 °F71.1 °F91 %29.74 in10.0 miSW (220°)6.9 mphOvercast
10:54 PM72.0 °F70.0 °F93 %29.74 in6.0 miSouth (190°)5.8 mph0.00 inOvercast
11:48 PM71.6 °F69.8 °F94 %29.73 in7.0 miSSW (200°)6.9 mphMostly Cloudy
11:54 PM72.0 °F70.0 °F93 %29.74 in6.0 miSW (230°)4.6 mphOvercast
Hourly data recorded from KBOS, located miles away from Boston, Massachusetts







STORIES FROM OUR PARTNERS